[[{"header":{"parameterUnit":"m.s-1","parameterCategory":1,"la1":30.2991,"la2":30.254,"lo1":-89.0895,"lo2":-89.0444,"dy":0.0017,"dx":0.0017,"nx":28,"ny":28,"refTime":"2025-04-27T21:00:00:Z","depth":0,"parameterNumber":2,"parameterNumberName":"U-component_of_WINDS"},"data":[0,0,0,0,0,0,0,0,0,0,0,0,0,0,0,0,0,0,0,0,0,0,0,0,0,0,0,0,0,0,0,0,0,0,0,0,0,0,0,0,0,0,0,0,0,0,0,0,0,0,0,0,0,0,0,0,0,0,0.8136,0.8138,0,0.8269,0.8271,0.8272,0.8295,0.8294,0.8293,0.8292,0.8431,0.8436,0.844,0,0,0,0,0,0,0,0,0,0,0,0,0,0.7904,0.7908,0.8136,0.8138,0.8139,0.8269,0.8271,0.8273,0.8295,0.8294,0.8293,0.8291,0.843,0.8435,0.8441,0,0,0,0,0,0,0,0,0,0,0,0,0,0.8018,0.7909,0.8136,0.8166,0.817,0.8269,0.8271,0.8273,0.8296,0.8294,0.8292,0.8291,0.8428,0.8435,0.8442,0.852,0,0,0.8463,0.8467,0,0,0,0,0,0,0,0,0.8011,0.8026,0.816,0.8164,0.8169,0.8264,0.824,0.8356,0.8296,0.8248,0.8292,0.829,0.8377,0.8388,0.8417,0.8526,0.8532,0.8464,0.8468,0.8471,0.8473,0,0,0,0,0,0,0,0.8003,0.802,0.8189,0.8162,0.8168,0.8174,0.8188,0.8262,0.8321,0.8252,0.8254,0.827,0.8379,0.841,0.842,0.8534,0.8464,0.847,0.8475,0.8477,0.8713,0.8715,0,0,0,0,0,0,0.7989,0.8014,0.8185,0.8193,0.8084,0.818,0.8196,0.8235,0.832,0.8331,0.8271,0.827,0.8399,0.8412,0.8425,0.8521,0.8471,0.8478,0.8482,0.8711,0.8713,0.8716,0,0,0,0,0,0,0.7984,0.8004,0.8179,0.8104,0.8127,0.8185,0.823,0.8239,0.827,0.8334,0.8345,0.8291,0.8398,0.8415,0.8496,0.8527,0.8481,0.8488,0.8709,0.8712,0.8714,0.8714,0,0,0,0,0,0,0.7978,0.8003,0.8032,0.8104,0.813,0.8246,0.8232,0.8243,0.8281,0.8282,0.8356,0.8367,0.8398,0.8485,0.8503,0.8536,0.8493,0.8706,0.871,0.8714,0.8712,0.8717,0.8721,0,0,0,0,0,0.7969,0.8028,0.8034,0.8054,0.8169,0.8248,0.8263,0.8297,0.8284,0.8314,0.8356,0.8364,0.852,0.8493,0.8513,0.8549,0.8704,0.8709,0.8713,0.871,0.8716,0.8721,0,0,0,0,0,0,0.7959,0.8038,0.8045,0.8129,0.8181,0.8252,0.8291,0.8303,0.8361,0.8359,0.8399,0.8416,0.8494,0.853,0.8497,0.8628,0.8611,0.862,0.8602,0.8608,0.8613,0.8602,0.8499,0,0,0,0,0,0.7966,0.8023,0.8089,0.8157,0.8183,0.8232,0.8268,0.829,0.8346,0.8369,0.8416,0.8472,0.8533,0.8573,0.8633,0.8717,0.8733,0.8752,0.8756,0.876,0.8767,0.8813,0.8822,0.873,0.873,0.873,0,0,0.7982,0.8032,0.8066,0.8156,0.8199,0.8258,0.8251,0.8314,0.8358,0.8379,0.8457,0.8493,0.8558,0.864,0.8679,0.8672,0.8796,0.8766,0.8768,0.8773,0.8819,0.8827,0.8835,0.8733,0.8733,0.8732,0,0,0.8041,0.8084,0.8145,0.8188,0.8253,0.8286,0.83,0.8369,0.8394,0.8473,0.8489,0.8543,0.8648,0.8693,0.873,0.8804,0.8815,0.8823,0.8848,0.8892,0.89,0.8906,0.8932,0.8941,0.883,0.883,0.883,0,0.8052,0.8141,0.8175,0.8236,0.8275,0.8296,0.8357,0.8398,0.848,0.8507,0.8498,0.8629,0.8675,0.8767,0.8785,0.8814,0.8832,0.8815,0.8896,0.8903,0.8909,0.8935,0.8944,0.883,0.883,0.883,0.883,0,0.8151,0.8212,0.8253,0.833,0.8374,0.8435,0.8479,0.8519,0.8537,0.857,0.865,0.8705,0.8776,0.88,0.8818,0.8895,0.8889,0.8887,0.8871,0.8918,0.8942,0.8952,0.8831,0.8831,0.8831,0.8831,0,0,0.8207,0.8302,0.8316,0.8351,0.8424,0.8473,0.8535,0.8603,0.8637,0.8693,0.8746,0.8834,0.8833,0.8874,0.8898,0.8937,0.8992,0.8931,0.8933,0.894,0.9079,0.9079,0.909,0.8999,0.9001,0.9003,0.9074,0,0.8274,0.8384,0.8416,0.851,0.8566,0.8586,0.8641,0.8692,0.8725,0.8778,0.8815,0.8876,0.8871,0.8896,0.8936,0.8977,0.902,0.8972,0.9049,0.9052,0.9032,0.9103,0.9103,0.9167,0.9084,0.9085,0.9086,0,0.8367,0.8423,0.8521,0.8586,0.8611,0.8659,0.8724,0.8775,0.8833,0.8854,0.89,0.892,0.8986,0.8967,0.9058,0.9025,0.9058,0.9083,0.9086,0.9094,0.9071,0.9112,0.9189,0.9198,0.9102,0.9101,0.91,0,0.8396,0.8497,0.8568,0.8598,0.8676,0.8709,0.8743,0.88,0.8839,0.8896,0.8921,0.8986,0.9021,0.9071,0.9108,0.909,0.9196,0.918,0.9215,0.9214,0.9236,0.9234,0.9319,0.9259,0.9259,0.9259,0.9258,0,0.8467,0.8526,0.8582,0.8626,0.8693,0.873,0.8795,0.8831,0.8881,0.8932,0.8955,0.9003,0.9049,0.9103,0.9133,0.9204,0.922,0.9239,0.9246,0.9237,0.9234,0.9259,0.9255,0.9261,0.9261,0.926,0.926,0,0.8511,0.8551,0.8631,0.8698,0.8716,0.8762,0.882,0.8864,0.8897,0.8962,0.8979,0.9033,0.9098,0.9139,0.9223,0.9242,0.932,0.9326,0.93,0.9303,0.9336,0.9332,0.9438,0.9454,0.9384,0.9385,0.9386,0,0.8553,0.8599,0.8671,0.8706,0.874,0.8798,0.8837,0.8875,0.8915,0.8984,0.902,0.9086,0.9141,0.9244,0.929,0.9354,0.9361,0.9394,0.9371,0.936,0.9361,0.9358,0.9362,0.9398,0.9399,0.9399,0.9399,0,0.8623,0.8641,0.8696,0.8758,0.8804,0.8855,0.8906,0.8935,0.8981,0.9025,0.9091,0.9134,0.9218,0.9284,0.9351,0.9387,0.9401,0.9406,0.9418,0.9408,0.9391,0.94,0.9309,0.9404,0.9403,0.9403,0.9403,0.9402,0.8668,0.8709,0.8765,0.8826,0.8868,0.8915,0.8959,0.8998,0.9053,0.9124,0.9143,0.9212,0.9269,0.9361,0.9399,0.9453,0.9449,0.9466,0.9471,0.9474,0.9474,0.9382,0.9466,0.9466,0.9466,0.9466,0.9466,0,0.8738,0.8775,0.8831,0.8901,0.8948,0.8956,0.9013,0.9053,0.9113,0.9164,0.9217,0.9293,0.9356,0.9408,0.9473,0.9507,0.9515,0.9523,0.952,0.9528,0.9474,0.9457,0.9515,0.9515,0.9515,0.9515,0.9515,0.9515,0.878,0.885,0.8874,0.8965,0.9002,0.9069,0.91,0.9144,0.9185,0.9268,0.932,0.9353,0.9405,0.9474,0.9532,0.9546,0.9569,0.9575,0.959,0.9538,0.9532,0.9527,0.9511,0.958,0.958,0.964,0.964,0.964]},{"header":{"parameterUnit":"m.s-1","parameterCategory":1,"la1":30.2991,"la2":30.254,"lo1":-89.0895,"lo2":-89.0444,"dy":0.0017,"dx":0.0017,"nx":28,"ny":28,"refTime":"2025-04-27T21:00:00:Z","depth":0,"parameterNumber":3,"parameterNumberName":"V-component_of_WINDS"},"data":[0,0,0,0,0,0,0,0,0,0,0,0,0,0,0,0,0,0,0,0,0,0,0,0,0,0,0,0,0,0,0,0,0,0,0,0,0,0,0,0,0,0,0,0,0,0,0,0,0,0,0,0,0,0,0,0,0,0,3.1562,3.1562,0,3.1519,3.1518,3.1518,3.1418,3.1416,3.1414,3.1412,3.137,3.1371,3.1372,0,0,0,0,0,0,0,0,0,0,0,0,0,3.1562,3.1562,3.1562,3.1562,3.1561,3.1519,3.1518,3.1518,3.1419,3.1416,3.1414,3.1411,3.137,3.1371,3.1372,0,0,0,0,0,0,0,0,0,0,0,0,0,3.1545,3.1562,3.1562,3.1507,3.1501,3.1519,3.1518,3.1518,3.1419,3.1416,3.1413,3.141,3.1369,3.1371,3.1372,3.1441,0,0,3.1375,3.1376,0,0,0,0,0,0,0,0,3.1546,3.1545,3.1515,3.1511,3.1504,3.1471,3.1502,3.1492,3.142,3.145,3.1412,3.1409,3.1406,3.1404,3.1403,3.1439,3.1437,3.1375,3.1376,3.1377,3.1377,0,0,0,0,0,0,0,3.1547,3.1546,3.1545,3.1515,3.1508,3.1484,3.1479,3.15,3.1446,3.1447,3.144,3.1436,3.1403,3.1402,3.1401,3.1437,3.1375,3.1377,3.1377,3.1378,3.1526,3.153,0,0,0,0,0,0,3.1556,3.1548,3.1546,3.1544,3.1518,3.1487,3.148,3.1485,3.1446,3.1437,3.1439,3.1432,3.1401,3.14,3.1399,3.1477,3.1377,3.1378,3.1379,3.1523,3.1527,3.1531,0,0,0,0,0,0,3.1556,3.1557,3.1548,3.1544,3.1541,3.149,3.1496,3.1486,3.1485,3.1439,3.1429,3.1448,3.1399,3.1398,3.1431,3.1474,3.1378,3.1379,3.1519,3.1524,3.1529,3.1633,0,0,0,0,0,0,3.1557,3.1557,3.1583,3.1545,3.1541,3.158,3.1499,3.1487,3.1487,3.1477,3.1445,3.1437,3.1396,3.143,3.1432,3.1474,3.138,3.1515,3.1522,3.1527,3.1626,3.1641,3.1654,0,0,0,0,0,3.1557,3.1615,3.1585,3.1585,3.1572,3.1583,3.1581,3.1533,3.1491,3.1516,3.1486,3.1438,3.1469,3.1434,3.1436,3.1479,3.1512,3.152,3.1527,3.1619,3.1638,3.1654,0,0,0,0,0,0,3.166,3.1609,3.1575,3.1622,3.1607,3.1566,3.1596,3.1554,3.1552,3.1543,3.1484,3.1478,3.1519,3.1502,3.1464,3.1543,3.1483,3.1491,3.1552,3.157,3.1584,3.1587,3.1381,0,0,0,0,0,3.1688,3.17,3.1655,3.1701,3.1696,3.1648,3.1651,3.1615,3.1598,3.1591,3.1565,3.1551,3.1557,3.1563,3.1566,3.1623,3.1614,3.1653,3.1668,3.168,3.1687,3.1715,3.1732,3.1555,3.1555,3.1554,0,0,3.1746,3.1719,3.1731,3.1721,3.1706,3.172,3.1643,3.1662,3.1673,3.1595,3.1624,3.1604,3.1585,3.163,3.1648,3.1617,3.1734,3.1689,3.1699,3.1699,3.1724,3.1741,3.1756,3.156,3.1559,3.1558,0,0,3.1859,3.1841,3.1876,3.1862,3.1839,3.1807,3.1816,3.1781,3.1765,3.1793,3.1734,3.1747,3.1759,3.1747,3.1743,3.1852,3.1807,3.1855,3.1929,3.1958,3.1971,3.1984,3.2022,3.2036,3.1863,3.1863,3.1863,0,3.1934,3.1953,3.19,3.1922,3.192,3.1849,3.1884,3.1874,3.1854,3.1854,3.1819,3.1833,3.1815,3.1856,3.1883,3.1882,3.189,3.1858,3.1974,3.1985,3.1996,3.2031,3.2046,3.1869,3.1868,3.1868,3.1867,0,3.2046,3.2061,3.2092,3.2074,3.2075,3.2104,3.2056,3.2063,3.2028,3.1999,3.2029,3.2005,3.2002,3.201,3.1975,3.2046,3.2027,3.1984,3.1922,3.2019,3.2052,3.2065,3.1878,3.1875,3.1874,3.1872,0,0,3.2222,3.2173,3.2186,3.2176,3.2146,3.2157,3.2183,3.218,3.2187,3.2176,3.2197,3.2209,3.2169,3.2164,3.2128,3.2153,3.224,3.2106,3.2105,3.2131,3.2316,3.2348,3.2364,3.221,3.2212,3.2214,3.2317,0,3.2327,3.2368,3.2321,3.2372,3.2384,3.2318,3.234,3.2325,3.23,3.2307,3.2279,3.2288,3.2235,3.2231,3.2253,3.2225,3.2276,3.2217,3.2228,3.223,3.2234,3.2381,3.2415,3.2513,3.2329,3.2332,3.2333,0,3.2455,3.2449,3.2501,3.2467,3.2471,3.2492,3.2484,3.2492,3.2474,3.2453,3.2449,3.2405,3.2429,3.2369,3.2401,3.2362,3.2364,3.2351,3.2354,3.2352,3.2287,3.2383,3.2543,3.2558,3.2353,3.2351,3.235,0,3.2576,3.2582,3.2613,3.2607,3.2569,3.2585,3.2571,3.2549,3.2549,3.2544,3.2543,3.2541,3.254,3.2539,3.2496,3.2457,3.2533,3.247,3.2517,3.2518,3.2535,3.2535,3.2697,3.2539,3.2539,3.2539,3.2538,0,3.2698,3.2732,3.2667,3.2686,3.2723,3.2669,3.2707,3.2686,3.2667,3.2681,3.2624,3.2639,3.2582,3.2591,3.2557,3.2589,3.2589,3.2573,3.2564,3.2578,3.258,3.2578,3.257,3.2542,3.2542,3.2541,3.254,0,3.2839,3.2797,3.2827,3.2788,3.2779,3.2808,3.2775,3.2792,3.2763,3.2782,3.2783,3.2738,3.2745,3.2703,3.2703,3.268,3.2728,3.2708,3.2734,3.2727,3.2776,3.2772,3.2942,3.2962,3.2792,3.2794,3.2795,0,3.2919,3.2943,3.2907,3.2912,3.29,3.2909,3.2909,3.2858,3.2861,3.2841,3.2861,3.2863,3.2863,3.2878,3.2846,3.2846,3.2824,3.2884,3.2824,3.2837,3.2824,3.2823,3.2825,3.2896,3.2898,3.29,3.2902,0,3.3064,3.3042,3.3044,3.3039,3.3041,3.3035,3.3025,3.3033,3.2977,3.2983,3.299,3.299,3.2989,3.2993,3.2986,3.2971,3.2928,3.2921,3.2931,3.2946,3.296,3.2952,3.2767,3.2917,3.2915,3.2914,3.2913,3.2913,3.3176,3.3195,3.3172,3.3177,3.3164,3.3156,3.3169,3.3142,3.3146,3.3141,3.3111,3.3124,3.3104,3.3091,3.308,3.3089,3.3061,3.3077,3.308,3.3085,3.3093,3.2959,3.3088,3.3088,3.3087,3.3087,3.3087,0,3.3318,3.33,3.3305,3.3292,3.3296,3.3254,3.3241,3.3247,3.3258,3.3244,3.3244,3.3252,3.3255,3.3223,3.3222,3.3236,3.3216,3.3237,3.3235,3.3233,3.3119,3.311,3.3254,3.3254,3.3254,3.3253,3.3253,3.3253,3.3392,3.3421,3.3397,3.3419,3.3401,3.3412,3.3408,3.34,3.3388,3.3399,3.3401,3.338,3.3359,3.3356,3.3358,3.3348,3.335,3.3379,3.3362,3.3257,3.3241,3.3225,3.3216,3.338,3.338,3.3475,3.3476,3.3476]}]]